This is the latest recevied weather packets stored in our database for station/object KY0TEQ-13. If no packets are shown the sender has not sent any weather packets the latest 10 day(s).
| Time | Temp. | Humidity | Pressure | Rain* | Wind** | Luminosity | Snow |
|---|---|---|---|---|---|---|---|
| 1778041291 | 5° C | 78% | 1297.6 hPa | 0 mm | - | 0 W/m² | - |
| 1778040990 | 5° C | 78% | 1297.1 hPa | 0 mm | - | 0 W/m² | - |
| 1778040686 | 5° C | 78% | 1297.2 hPa | 0 mm | - | 0 W/m² | - |
| 1778040385 | 5° C | 78% | 1297.4 hPa | 0 mm | - | 0 W/m² | - |
| 1778040081 | 5° C | 77% | 1297.2 hPa | 0 mm | - | 0 W/m² | - |
| 1778039777 | 5.56° C | 76% | 1297 hPa | 0 mm | - | 0 W/m² | - |
| 1778039474 | 5.56° C | 75% | 1296.8 hPa | 0 mm | - | 0 W/m² | - |
| 1778039171 | 6.11° C | 72% | 1297.1 hPa | 0 mm | - | 0 W/m² | - |
| 1778038868 | 6.11° C | 70% | 1296.7 hPa | 0 mm | - | 0 W/m² | - |
| 1778038565 | 6.11° C | 70% | 1296.7 hPa | 0 mm | - | 0 W/m² | - |
| 1778038262 | 6.11° C | 72% | 1296.6 hPa | 0 mm | - | 0 W/m² | - |
| 1778037959 | 6.11° C | 68% | 1296.5 hPa | 0 mm | - | 0 W/m² | - |
| 1778037656 | 6.11° C | 71% | 1296.7 hPa | 0 mm | - | 0 W/m² | - |
| 1778037353 | 6.11° C | 71% | 1296.7 hPa | 0 mm | - | 0 W/m² | - |
| 1778037050 | 6.11° C | 72% | 1296.5 hPa | 0 mm | - | 0 W/m² | - |
| 1778036749 | 6.11° C | 72% | 1296.5 hPa | 0 mm | - | 0 W/m² | - |
| 1778036445 | 6.11° C | 71% | 1296.6 hPa | 0 mm | - | 0 W/m² | - |
| 1778036142 | 6.67° C | 71% | 1296.5 hPa | 0 mm | - | 0 W/m² | - |
| 1778035838 | 6.67° C | 70% | 1296.6 hPa | 0 mm | - | 0 W/m² | - |
| 1778035536 | 6.67° C | 68% | 1296.2 hPa | 0 mm | - | 0 W/m² | - |
| 1778035232 | 6.67° C | 70% | 1296.5 hPa | 0 mm | - | 0 W/m² | - |
| 1778034928 | 7.22° C | 69% | 1296.6 hPa | 0 mm | - | 0 W/m² | - |
| 1778034626 | 7.22° C | 65% | 1296.1 hPa | 0 mm | - | 0 W/m² | - |
| 1778034323 | 7.22° C | 64% | 1296.1 hPa | 0 mm | - | 0 W/m² | - |
| 1778034020 | 7.78° C | 64% | 1295.9 hPa | 0 mm | - | 0 W/m² | - |
* Rain latest hour (hover to see other rain measurements)
** Current wind speed in m/s (hover to see current wind gust speed)